This is the latest recevied weather packets stored in our database for station/object IZ8GMP-13. If no packets are shown the sender has not sent any weather packets the latest 10 day(s).
| Time | Temp. | Humidity | Pressure | Rain* | Wind** | Luminosity | Snow |
|---|---|---|---|---|---|---|---|
| 1788512482 | 29.44° C | 57% | 1017.2 hPa | - | - | - | - |
| 1788511279 | 29.44° C | 60% | 1017.3 hPa | - | - | - | - |
| 1788510076 | 29.44° C | 60% | 1017.4 hPa | - | - | - | - |
| 1788508872 | 28.89° C | 62% | 1017.2 hPa | - | - | - | - |
| 1788507668 | 28.89° C | 63% | 1017 hPa | - | - | - | - |
| 1788505261 | 27.78° C | 68% | 1016.7 hPa | - | - | - | - |
| 1788504058 | 27.22° C | 71% | 1016.7 hPa | - | - | - | - |
| 1788502854 | 27.22° C | 71% | 1016.8 hPa | - | - | - | - |
| 1788501651 | 27.22° C | 70% | 1016.7 hPa | - | - | - | - |
| 1788500447 | 27.22° C | 69% | 1016.9 hPa | - | - | - | - |
| 1788499244 | 27.22° C | 69% | 1016.8 hPa | - | - | - | - |
| 1788498041 | 27.22° C | 68% | 1016.6 hPa | - | - | - | - |
| 1788496837 | 27.22° C | 68% | 1016.4 hPa | - | - | - | - |
| 1788495634 | 27.22° C | 67% | 1016.3 hPa | - | - | - | - |
| 1788494430 | 27.22° C | 68% | 1016.3 hPa | - | - | - | - |
| 1788493227 | 27.22° C | 67% | 1016.2 hPa | - | - | - | - |
| 1788492023 | 27.22° C | 68% | 1016.1 hPa | - | - | - | - |
| 1788490820 | 27.22° C | 67% | 1016.1 hPa | - | - | - | - |
| 1788489616 | 27.22° C | 66% | 1016.1 hPa | - | - | - | - |
| 1788488413 | 27.22° C | 66% | 1016.2 hPa | - | - | - | - |
| 1788486006 | 27.78° C | 65% | 1016.1 hPa | - | - | - | - |
| 1788482395 | 27.78° C | 65% | 1015.9 hPa | - | - | - | - |
| 1788481192 | 27.78° C | 65% | 1016 hPa | - | - | - | - |
| 1788479988 | 27.78° C | 65% | 1016.1 hPa | - | - | - | - |
| 1788477582 | 27.78° C | 65% | 1016.4 hPa | - | - | - | - |
* Rain since midnight (hover to see other rain measurements)
** Current wind speed in m/s (hover to see current wind gust speed)